Weather History for Waukegan, IL

Change the Weather History Date:

Saturday, November 23, 2013

  Actual Average Record
Temperature  
Mean Temperature 19 °F -  
Max Temperature 25 °F 42 °F 64 °F (2003)
Min Temperature 12 °F 28 °F 12 °F (2013)
Degree Days  
Heating Degree Days 46 30  
Month to date heating degree days 585 558  
Since 1 July heating degree days 1225 1164  
Cooling Degree Days 0 0  
Month to date cooling degree days 0 0  
Year to date cooling degree days 590 564  
Moisture  
Dew Point 7 °F    
Average Humidity 60    
Maximum Humidity 74    
Minimum Humidity 45    
Precipitation  
Precipitation 0.00 in 0.09 in 0.35 in (2003)
Month to date precipitation 1.94 2.19  
Year to date precipitation 28.18 33.02  
Sea Level Pressure  
Sea Level Pressure 30.60 in    
Wind  
Wind Speed 10 mph (NW)    
Max Wind Speed 20 mph    
Max Gust Speed 31 mph    
Visibility 10 miles    
Events      
T = Trace of Precipitation, MM = Missing Value Source: NWS Daily Summary

Daily Weather History Graph

Daily Weather History Graph

Search for Another Location

Airport:

Trip Planner

Search our weather history database for the weather conditions in past years. The results will help you decide how hot, cold, wet, or windy it might be!

Date:

Astronomy

Nov. 23, 2013 Rise Set
Actual Time 6:52 AM CST 4:23 PM CST
Civil Twilight 6:21 AM CST 4:54 PM CST
Nautical Twilight 5:47 AM CST 5:28 PM CST
Astronomical Twilight 5:13 AM CST 6:02 PM CST
Moon 9:54 PM CST (11/23) 11:06 AM CST (11/23)
Length of Visible Light 10h 32m
Length of Day
9h 30m
Waning Gibbous, 69% of the Moon is Illuminated
Nov 23
Waning Gibbous
Nov 25
Last Quarter
Dec 2
New
Dec 9
First Quarter
Dec 17
Full

Hourly Weather History & Observations

Time (CST) Temp. Windchill Dew Point Humidity Pressure Visibility Wind Dir Wind Speed Gust Speed Precip Events Conditions
12:52 AM 24.1 °F 19.7 °F 15.1 °F 69% 30.44 in 10.0 mi Variable 3.5 mph - N/A   Clear
1:52 AM 24.1 °F 19.7 °F 14.0 °F 65% 30.45 in 10.0 mi Variable 3.5 mph - N/A   Clear
2:52 AM 23.0 °F 15.8 °F 15.1 °F 72% 30.44 in 10.0 mi West 5.8 mph - N/A   Clear
3:52 AM 23.0 °F 15.8 °F 15.1 °F 72% 30.44 in 10.0 mi West 5.8 mph - N/A   Mostly Cloudy
4:52 AM 23.0 °F 13.9 °F 15.1 °F 72% 30.47 in 10.0 mi WNW 8.1 mph 17.3 mph N/A   Scattered Clouds
5:52 AM 21.9 °F 12.5 °F 12.0 °F 66% 30.49 in 10.0 mi NW 8.1 mph 17.3 mph N/A   Clear
6:52 AM 19.9 °F 9.3 °F 10.0 °F 65% 30.51 in 10.0 mi NW 9.2 mph 18.4 mph N/A   Clear
7:52 AM 19.9 °F 6.7 °F 7.0 °F 57% 30.53 in 10.0 mi NW 13.8 mph 23.0 mph N/A   Clear
8:52 AM 19.9 °F 5.2 °F 7.0 °F 57% 30.56 in 10.0 mi NNW 17.3 mph 26.5 mph N/A   Clear
9:52 AM 21.0 °F 8.6 °F 7.0 °F 55% 30.60 in 10.0 mi NW 12.7 mph 18.4 mph N/A   Partly Cloudy
10:52 AM 19.9 °F 5.7 °F 6.1 °F 55% 30.61 in 10.0 mi NNW 16.1 mph 24.2 mph N/A   Partly Cloudy
11:52 AM 23.0 °F 10.1 °F 5.0 °F 46% 30.61 in 10.0 mi NNW 15.0 mph 23.0 mph N/A   Partly Cloudy
12:52 PM 21.9 °F 10.4 °F 5.0 °F 48% 30.61 in 10.0 mi NW 11.5 mph 27.6 mph N/A   Partly Cloudy
1:52 PM 19.9 °F 5.7 °F 3.0 °F 48% 30.63 in 10.0 mi NNW 16.1 mph 24.2 mph N/A   Partly Cloudy
2:52 PM 19.9 °F 6.2 °F 3.0 °F 48% 30.65 in 10.0 mi WNW 15.0 mph 26.5 mph N/A   Mostly Cloudy
3:52 PM 19.0 °F 9.0 °F 3.0 °F 50% 30.66 in 10.0 mi NW 8.1 mph 19.6 mph N/A   Partly Cloudy
4:52 PM 18.0 °F 6.1 °F 3.0 °F 52% 30.68 in 10.0 mi NW 10.4 mph - N/A   Partly Cloudy
5:52 PM 17.1 °F 6.6 °F 3.0 °F 54% 30.71 in 10.0 mi NW 8.1 mph - N/A   Clear
6:52 PM 16.0 °F 5.3 °F 3.0 °F 57% 30.71 in 10.0 mi NW 8.1 mph - N/A   Clear
7:52 PM 15.1 °F 6.4 °F 1.9 °F 56% 30.72 in 10.0 mi NW 5.8 mph - N/A   Clear
8:52 PM 14.0 °F 2.9 °F 3.0 °F 62% 30.73 in 10.0 mi WNW 8.1 mph - N/A   Clear
9:52 PM 14.0 °F 5.1 °F 1.9 °F 59% 30.75 in 10.0 mi WNW 5.8 mph - N/A   Clear
10:52 PM 12.9 °F 0.7 °F 1.0 °F 59% 30.73 in 10.0 mi NNW 9.2 mph - N/A   Clear
11:52 PM 12.0 °F 1.5 °F 1.0 °F 61% 30.73 in 10.0 mi WNW 6.9 mph - N/A   Clear